Latest Weather Observations for Mt Wellington

IDT60901

Issued at 12:55 pm EST Wednesday 3 September 2014 (issued every 10 minutes, with the page automatically refreshed every 10 minutes)

About weather observations | Map of Hobart area stations | Latest observations for Hobart area | Other Formats
Station Details ID: 094087 Name: MOUNT WELLINGTON Lat: -42.90 Lon: 147.24 Height: 1260.47 m
Data from the previous 72 hours. | See also: Recent months at Mt Wellington
Date/Time
EST
Tmp

°C
App
Tmp
°C
Dew
Point
°C
Rel
Hum
%
Delta-T

°C
Wind Press
QNH
hPa
Press
MSL
hPa
Rain
since
9 am
mm
Dir
 
Spd
km/h
Gust
km/h
Spd
kts
Gust
kts
03/12:30pm 2.0 -3.3 1.7 98 0.1 W 19 28 10 15 - - 0.0
03/12:00pm 1.6 -4.4 1.3 98 0.1 WSW 22 30 12 16 - - 0.0
03/11:30am 1.5 -6.6 1.2 98 0.1 SW 33 43 18 23 - - 0.0
03/11:00am 1.2 -7.3 0.9 98 0.1 WSW 35 43 19 23 - - 0.0
03/10:30am 1.3 -6.6 1.0 98 0.1 WSW 32 41 17 22 - - 0.0
03/10:00am 0.8 -8.1 0.5 98 0.1 SW 37 48 20 26 - - 0.0
03/09:30am 0.2 -10.2 -0.1 98 0.1 SW 44 52 24 28 - - 0.0
03/09:00am 0.0 -9.1 -0.3 98 0.1 WSW 37 46 20 25 - - 3.0
03/08:30am 0.0 -8.1 -0.3 98 0.1 SW 32 46 17 25 - - 3.0
03/08:27am 0.0 -7.3 -0.3 98 0.1 SW 28 46 15 25 - - 3.0
03/08:00am -0.1 -2.1 -0.4 98 0.1 CALM 0 0 0 0 - - 3.0
03/07:30am -0.2 -2.3 -0.5 98 0.1 CALM 0 0 0 0 - - 3.0
03/07:00am -0.5 -2.6 -0.8 98 0.1 CALM 0 0 0 0 - - 2.8
03/06:30am -0.6 -2.7 -0.9 98 0.1 CALM 0 0 0 0 - - 2.6
03/06:00am -0.7 -2.8 -1.0 98 0.1 CALM 0 0 0 0 - - 2.6
03/05:30am -0.9 -3.1 -1.3 97 0.1 CALM 0 0 0 0 - - 2.6
03/05:00am -1.0 -3.2 -1.4 97 0.1 CALM 0 0 0 0 - - 2.6
03/04:30am -0.9 -3.1 -1.3 97 0.1 CALM 0 0 0 0 - - 2.6
03/04:00am -0.9 -3.1 -1.3 97 0.1 CALM 0 0 0 0 - - 2.6
03/03:30am -1.0 -3.2 -1.4 97 0.1 CALM 0 0 0 0 - - 2.6
03/03:00am -1.2 -3.4 -1.6 97 0.1 CALM 0 0 0 0 - - 2.6
03/02:30am -1.3 -3.5 -1.7 97 0.1 CALM 0 0 0 0 - - 2.6
03/02:00am -1.4 -3.6 -1.8 97 0.1 CALM 0 0 0 0 - - 2.6
03/01:30am -1.6 -3.9 -2.0 97 0.1 CALM 0 0 0 0 - - 2.6
03/01:00am -1.7 -4.0 -2.1 97 0.1 CALM 0 0 0 0 - - 2.6
03/12:30am -1.9 -4.2 -2.3 97 0.1 CALM 0 0 0 0 - - 2.6
03/12:00am -2.0 -4.3 -2.4 97 0.0 SW 0 0 0 0 - - 2.6
 
Date/Time
EST
Tmp

°C
App
Tmp
°C
Dew
Point
°C
Rel
Hum
%
Delta-T

°C
Wind Press
QNH
hPa
Press
MSL
hPa
Rain
since
9 am
mm
Dir
 
Spd
km/h
Gust
km/h
Spd
kts
Gust
kts
02/11:30pm -2.1 -4.4 -2.6 96 0.1 CALM 0 0 0 0 - - 2.6
02/11:00pm -2.4 -4.8 -2.9 96 0.1 CALM 0 0 0 0 - - 2.6
02/10:30pm -2.4 -4.8 -2.9 96 0.1 CALM 0 0 0 0 - - 2.6
02/10:00pm -2.4 -4.8 -2.9 96 0.1 CALM 0 0 0 0 - - 2.6
02/09:30pm -2.3 -4.7 -2.8 96 0.1 CALM 0 0 0 0 - - 2.6
02/09:00pm -2.1 -4.4 -2.6 96 0.1 CALM 0 0 0 0 - - 2.6
02/08:30pm -2.4 -4.8 -2.9 96 0.1 CALM 0 0 0 0 - - 2.6
02/08:00pm -2.6 -5.0 -3.1 96 0.1 CALM 0 0 0 0 - - 2.6
02/07:30pm -2.1 -4.4 -2.5 97 0.0 CALM 0 0 0 0 - - 2.6
02/07:00pm -1.9 -4.2 -2.3 97 0.1 CALM 0 0 0 0 - - 2.6
02/06:30pm -1.6 -3.9 -2.0 97 0.1 CALM 0 0 0 0 - - 2.6
02/06:00pm -1.6 -3.9 -2.0 97 0.1 SW 0 0 0 0 - - 2.6
02/05:30pm -1.1 -3.3 -1.5 97 0.1 CALM 0 0 0 0 - - 2.6
02/05:00pm -0.8 -2.9 -1.1 98 0.1 CALM 0 0 0 0 - - 2.6
02/04:30pm -0.7 -2.8 -1.0 98 0.1 CALM 0 0 0 0 - - 2.6
02/04:00pm -0.6 -2.7 -1.0 97 0.1 CALM 0 0 0 0 - - 2.4
02/03:30pm -0.4 -2.5 -0.8 97 0.1 CALM 0 0 0 0 - - 1.6
02/03:00pm 0.0 -7.0 -0.4 97 0.2 SW 26 32 14 17 - - 1.0
02/02:30pm 0.0 -5.7 -0.4 97 0.2 WSW 19 22 10 12 - - 0.8
02/02:00pm -0.2 -5.1 -0.6 97 0.1 S 15 22 8 12 - - 0.8
02/01:30pm -0.5 -5.5 -1.1 96 0.2 S 15 22 8 12 - - 0.8
02/01:00pm -0.3 -6.0 -0.9 96 0.2 S 19 22 10 12 - - 0.8
02/12:30pm -0.5 -5.9 -1.1 96 0.2 S 17 24 9 13 - - 0.8
02/12:00pm -0.6 -6.9 -1.2 96 0.2 S 22 30 12 16 - - 0.8
02/11:30am -1.1 -7.9 -1.9 94 0.2 S 24 30 13 16 - - 0.8
02/11:00am -1.3 -8.1 -2.0 95 0.2 S 24 32 13 17 - - 0.8
02/10:30am -1.5 -8.3 -2.2 95 0.2 S 24 33 13 18 - - 0.8
02/10:00am -1.7 -9.3 -2.4 95 0.2 S 28 33 15 18 - - 0.8
02/09:30am -1.6 -8.8 -2.0 97 0.1 S 26 32 14 17 - - 0.4
02/09:00am -1.6 -9.2 -2.0 97 0.1 S 28 33 15 18 - - 10.8
02/08:30am -2.1 -9.0 -2.6 96 0.1 S 24 28 13 15 - - 10.4
02/08:00am -2.7 -9.7 -3.4 95 0.1 S 24 26 13 14 - - 10.4
02/07:30am -3.0 -10.4 -3.7 95 0.1 S 26 32 14 17 - - 10.4
02/07:00am -3.2 -11.4 -3.9 95 0.1 S 30 33 16 18 - - 10.4
02/06:30am -3.3 -11.9 -4.0 95 0.1 S 32 35 17 19 - - 10.4
02/06:00am -2.9 -11.0 -3.4 96 0.0 S 30 33 16 18 - - 10.4
02/05:30am -2.5 -11.2 -3.0 96 0.1 S 33 35 18 19 - - 10.4
02/05:00am -2.2 -11.2 -2.7 96 0.1 S 35 39 19 21 - - 10.4
02/04:30am -1.8 -11.1 -2.2 97 0.1 S 37 43 20 23 - - 10.4
02/04:00am -1.6 -11.3 -2.0 97 0.1 S 39 44 21 24 - - 10.4
02/03:30am -1.5 -10.4 -1.9 97 0.1 S 35 43 19 23 - - 10.4
02/03:00am -1.0 -9.8 -1.4 97 0.1 S 35 41 19 22 - - 10.2
02/02:30am -0.8 -9.6 -1.1 98 0.1 S 35 43 19 23 - - 10.2
02/02:00am -0.9 -10.5 -1.3 97 0.1 S 39 48 21 26 - - 10.2
02/01:30am -0.9 -10.9 -1.3 97 0.1 S 41 48 22 26 - - 10.2
02/01:00am -0.9 -10.5 -1.3 97 0.1 S 39 44 21 24 - - 10.2
02/12:30am -1.4 -10.7 -1.8 97 0.1 S 37 44 20 24 - - 10.2
02/12:00am -1.5 -11.2 -1.9 97 0.1 S 39 46 21 25 - - 10.2
 
Date/Time
EST
Tmp

°C
App
Tmp
°C
Dew
Point
°C
Rel
Hum
%
Delta-T

°C
Wind Press
QNH
hPa
Press
MSL
hPa
Rain
since
9 am
mm
Dir
 
Spd
km/h
Gust
km/h
Spd
kts
Gust
kts
01/11:30pm -1.7 -11.0 -2.1 97 0.1 S 37 48 20 26 - - 10.0
01/11:00pm -0.8 -9.6 -1.1 98 0.1 S 35 44 19 24 - - 10.0
01/10:30pm -0.8 -8.6 -1.1 98 0.1 S 30 39 16 21 - - 9.8
01/10:00pm -0.8 -10.3 -1.1 98 0.1 S 39 46 21 25 - - 9.6
01/09:30pm -1.4 -11.0 -1.7 98 0.0 S 39 44 21 24 - - 9.6
01/09:00pm -0.5 -10.0 -0.8 98 0.1 S 39 48 21 26 - - 9.6
01/08:30pm -0.2 -11.4 -0.5 98 0.1 S 48 57 26 31 - - 9.6
01/08:00pm -0.4 -12.0 -0.7 98 0.1 S 50 61 27 33 - - 9.4
01/07:30pm -0.2 -11.4 -0.5 98 0.1 S 48 59 26 32 - - 9.4
01/07:00pm -0.1 -11.6 -0.4 98 0.1 SSW 50 61 27 33 - - 9.2
01/06:30pm 0.0 -12.9 -0.3 98 0.1 SSW 57 65 31 35 - - 8.8
01/06:00pm 0.0 -12.9 -0.3 98 0.1 SSW 57 69 31 37 - - 8.4
01/05:30pm 0.0 -11.5 -0.3 98 0.1 SW 50 59 27 32 - - 7.8
01/05:00pm 0.1 -11.8 -0.2 98 0.1 SSW 52 65 28 35 - - 7.2
01/04:30pm 0.2 -12.1 -0.1 98 0.1 SSW 54 61 29 33 - - 6.6
01/04:00pm 0.3 -11.9 0.0 98 0.1 SW 54 63 29 34 - - 6.0
01/03:30pm 0.2 -12.1 -0.1 98 0.1 SW 54 61 29 33 - - 5.4
01/03:00pm 0.2 -11.3 -0.1 98 0.1 SW 50 59 27 32 - - 4.8
01/02:30pm 1.6 -8.0 1.3 98 0.1 SW 41 48 22 26 - - 4.0
01/02:00pm 2.4 -5.5 2.1 98 0.1 WSW 33 41 18 22 - - 3.6
01/01:30pm 3.0 -4.6 2.7 98 0.1 WSW 32 39 17 21 - - 3.2
01/01:00pm 3.6 -4.1 3.3 98 0.1 WSW 33 43 18 23 - - 2.2
01/12:40pm 4.4 -3.0 4.1 98 0.1 WNW 32 52 17 28 - - 1.0
01/12:30pm 4.6 -2.7 4.3 98 0.1 WNW 32 46 17 25 - - 0.6
01/12:24pm 4.5 -3.1 4.1 97 0.2 NW 33 54 18 29 - - 0.4
01/12:00pm 4.6 -4.5 3.9 95 0.3 NNW 41 56 22 30 - - 0.0
01/11:30am 5.1 -4.2 3.1 87 0.9 NNW 41 52 22 28 - - 0.0
01/11:01am 5.2 -3.0 2.9 85 1.0 NNW 35 54 19 29 - - 0.0
01/11:00am 5.2 -2.6 3.1 86 0.9 NNW 33 50 18 27 - - 0.0
01/10:33am 5.3 -2.8 3.0 85 1.0 NNW 35 54 19 29 - - 0.0
01/10:30am 5.3 -3.3 2.8 84 1.1 NNW 37 54 20 29 - - 0.0
01/10:00am 5.3 -5.0 2.8 84 1.1 N 46 65 25 35 - - 0.0
01/09:30am 5.3 -5.7 2.8 84 1.1 N 50 72 27 39 - - 0.0
01/09:00am 5.2 -5.8 2.9 85 1.0 N 50 74 27 40 - - 0.0
01/08:30am 5.3 -6.1 2.8 84 1.1 NNW 52 83 28 45 - - 0.0
01/08:00am 5.3 -5.8 2.7 83 1.2 N 50 72 27 39 - - 0.0
01/07:33am 5.0 -5.3 2.5 84 1.1 NNW 46 70 25 38 - - 0.0
01/07:30am 5.0 -5.7 2.5 84 1.1 NNW 48 61 26 33 - - 0.0
01/07:00am 5.1 -6.7 2.6 84 1.1 NNW 54 72 29 39 - - 0.0
01/06:30am 5.1 -7.6 2.8 85 1.0 NNW 59 80 32 43 - - 0.0
01/06:06am 5.1 -7.2 3.0 86 0.9 NNW 57 78 31 42 - - 0.0
01/06:00am 5.1 -7.6 3.0 86 0.9 NNW 59 76 32 41 - - 0.0
01/05:32am 5.1 -6.7 3.0 86 0.9 NNW 54 78 29 42 - - 0.0
01/05:30am 5.0 -6.8 3.0 87 0.9 NNW 54 70 29 38 - - 0.0
01/05:01am 5.0 -6.0 3.2 88 0.8 NNW 50 70 27 38 - - 0.0
01/05:00am 5.1 -6.3 3.1 87 0.9 NNW 52 70 28 38 - - 0.0
01/04:30am 4.9 -6.1 3.2 89 0.8 NNW 50 69 27 37 - - 0.0
01/04:00am 4.9 -5.0 2.9 87 0.9 NNW 44 70 24 38 - - 0.0
01/03:30am 4.9 -5.7 3.1 88 0.8 NNW 48 72 26 39 - - 0.0
01/03:00am 4.9 -7.2 3.1 88 0.8 NNW 56 78 30 42 - - 0.0
01/02:55am 4.9 -7.4 3.1 88 0.8 NNW 57 78 31 42 - - 0.0
01/02:30am 4.4 -5.4 3.2 92 0.5 N 44 61 24 33 - - 0.0
01/02:01am 4.3 -5.5 3.4 94 0.4 NNW 44 65 24 35 - - 0.0
01/02:00am 4.3 -5.9 3.4 94 0.4 NNW 46 65 25 35 - - 0.0
01/01:33am 4.4 -6.1 3.5 94 0.4 NNW 48 69 26 37 - - 0.0
01/01:30am 4.4 -6.5 3.4 93 0.4 NNW 50 69 27 37 - - 0.0
01/01:07am 4.5 -5.6 3.5 93 0.4 N 46 69 25 37 - - 0.0
01/01:00am 4.5 -5.3 3.5 93 0.4 N 44 61 24 33 - - 0.0
01/12:30am 4.5 -5.3 3.3 92 0.5 NNW 44 63 24 34 - - 0.0
01/12:25am 4.5 -4.8 3.2 91 0.6 NNW 41 63 22 34 - - 0.0
01/12:00am 4.7 -4.6 3.0 89 0.8 NNW 41 56 22 30 - - 0.0
 
Date/Time
EST
Tmp

°C
App
Tmp
°C
Dew
Point
°C
Rel
Hum
%
Delta-T

°C
Wind Press
QNH
hPa
Press
MSL
hPa
Rain
since
9 am
mm
Dir
 
Spd
km/h
Gust
km/h
Spd
kts
Gust
kts
31/11:30pm 5.1 -5.5 3.0 86 0.9 NNW 48 70 26 38 - - 0.0
31/11:25pm 5.1 -5.5 3.0 86 0.9 NNW 48 70 26 38 - - 0.0
31/11:00pm 5.4 -4.9 2.8 83 1.2 NNW 46 61 25 33 - - 0.0
31/10:30pm 5.6 -6.2 2.6 81 1.3 NNW 54 67 29 36 - - 0.0
31/10:00pm 5.7 -6.2 2.4 79 1.5 NNW 54 65 29 35 - - 0.0
31/09:30pm 5.5 -4.8 2.7 82 1.2 NNW 46 56 25 30 - - 0.0
31/09:00pm 5.5 -4.4 3.0 84 1.1 NW 44 52 24 28 - - 0.0
31/08:30pm 5.7 -4.5 3.4 85 1.0 NNW 46 59 25 32 - - 0.0
31/08:00pm 5.8 -4.0 3.6 86 1.0 NNW 44 54 24 29 - - 0.0
31/07:30pm 6.0 -3.6 3.5 84 1.1 NNW 43 54 23 29 - - 0.0
31/07:00pm 5.9 -2.5 3.7 86 1.0 NNW 37 46 20 25 - - 0.0
31/06:30pm 6.0 -2.4 3.8 86 1.0 NNW 37 44 20 24 - - 0.0
31/06:00pm 6.1 -2.3 3.8 85 1.1 NNW 37 44 20 24 - - 0.0
31/05:30pm 6.5 -1.5 3.7 82 1.3 NNW 35 44 19 24 - - 0.0
31/05:00pm 7.2 -0.9 3.3 76 1.8 NNW 35 43 19 23 - - 0.0
31/04:30pm 7.8 -0.2 3.7 75 1.9 NNW 35 44 19 24 - - 0.0
31/04:00pm 8.1 1.4 3.6 73 2.1 N 28 37 15 20 - - 0.0
31/03:30pm 8.8 1.0 2.8 66 2.8 NNW 33 39 18 21 - - 0.0
31/03:00pm 8.2 0.6 2.7 68 2.5 NNW 32 41 17 22 - - 0.0
31/02:30pm 9.2 1.3 2.5 63 3.1 NNW 33 48 18 26 - - 0.0
31/02:00pm 9.6 1.7 2.5 61 3.3 NW 33 43 18 23 - - 0.0
31/01:30pm 8.1 -1.1 1.5 63 2.9 WNW 39 46 21 25 - - 0.0
31/01:00pm 8.5 0.6 1.2 60 3.2 WNW 32 39 17 21 - - 0.0

Latest Capital City Observations: Canberra | Sydney | Melbourne | Brisbane | Adelaide | Perth | Hobart | Darwin

Other Formats:

Comma delimited format used in spreadsheet applications
http://www.bom.gov.au/fwo/IDT60901/IDT60901.95979.axf

JavaScript Object Notation format (JSON) in row-major order
http://www.bom.gov.au/fwo/IDT60901/IDT60901.95979.json